Weather History for LSZA - December, 2012

Change the Weather History Date:

Friday, December 7, 2012

  Actual Average Record
Temperature  
Mean Temperature 32 °F -  
Max Temperature 38 °F 44 °F 60 °F (2013)
Min Temperature 26 °F 34 °F 23 °F (1998)
Degree Days  
Heating Degree Days 33    
Moisture  
Dew Point 20 °F    
Average Humidity 58    
Maximum Humidity 100    
Minimum Humidity 17    
Precipitation  
Precipitation 0.01 in 0.09 in - ()
Sea Level Pressure  
Sea Level Pressure 29.84 in    
Wind  
Wind Speed 5 mph ()    
Max Wind Speed 12 mph    
Max Gust Speed -    
Visibility 5.6 miles    
Events Snow    
Averages and records for this station are not official NWS values.
T = Trace of Precipitation, MM = Missing Value Source: Averaged Metar Reports

Daily Weather History Graph

Daily Weather History Graph

Search for Another Location

Airport or City:

Trip Planner

Search our weather history database for the weather conditions in past years. The results will help you decide how hot, cold, wet, or windy it might be!

Date:

Astronomy

Dec. 07, 2012 Rise Set
Actual Time 7:52 AM CET 4:39 PM CET
Civil Twilight 7:18 AM CET 5:13 PM CET
Nautical Twilight 6:40 AM CET 5:51 PM CET
Astronomical Twilight 6:04 AM CET 6:27 PM CET
Moon 12:35 AM CET (12/7) 12:45 PM CET (12/7)
Length of Visible Light 9h 55m
Length of Day
8h 46m
Last Quarter, 41% of the Moon is Illuminated
Dec 7
Last Quarter
Dec 13
New
Dec 20
First Quarter
Dec 28
Full
Jan 5
Last Quarter

Hourly Weather History & Observations

Time (CET) Temp. Windchill Dew Point Humidity Pressure Visibility Wind Dir Wind Speed Gust Speed Precip Events Conditions
12:00 AM 37 °F - 8 °F 17% 30.00 in - North 8.1 mph - -  
12:20 AM 37.4 °F 29.8 °F 8.6 °F 30% 29.95 in - NNE 11.5 mph - N/A   Clear
12:50 AM 37.4 °F 30.3 °F 8.6 °F 30% 29.95 in - North 10.4 mph - N/A   Clear
1:20 AM 37.4 °F 29.8 °F 10.4 °F 33% 29.95 in - North 11.5 mph - N/A   Clear
1:50 AM 37.4 °F 30.3 °F 8.6 °F 30% 29.95 in - NNE 10.4 mph - N/A   Clear
2:00 AM 34 °F - 11 °F 24% 30.01 in - NNE 9.2 mph - -  
2:20 AM 37.4 °F 29.8 °F 8.6 °F 30% 29.95 in - NNE 11.5 mph - N/A   Clear
2:50 AM 37.4 °F 32.1 °F 8.6 °F 30% 29.95 in - NE 6.9 mph - N/A   Clear
3:00 AM 34 °F - 11 °F 24% 29.99 in - North 9.2 mph - -  
3:20 AM 33.8 °F 29.6 °F 12.2 °F 41% 29.95 in - Variable 4.6 mph - N/A   Clear
3:50 AM 33.8 °F - 12.2 °F 41% 29.95 in 6.2 mi Variable 2.3 mph - N/A   Scattered Clouds
4:20 AM 32.0 °F - 15.8 °F 51% 29.95 in 6.2 mi Variable 2.3 mph - N/A   Mostly Cloudy
4:50 AM 33.8 °F - 15.8 °F 48% 29.95 in 6.2 mi Variable 1.2 mph - N/A   Scattered Clouds
5:00 AM 35 °F - 12 °F 25% 29.99 in - North 5.8 mph - -  
5:20 AM 33.8 °F - 17.6 °F 52% 29.92 in 6.2 mi Variable 1.2 mph - N/A   Overcast
5:50 AM 32.0 °F - 17.6 °F 55% 29.92 in 6.2 mi Variable 1.2 mph - N/A   Overcast
6:00 AM 35 °F - 14 °F 28% 29.98 in - North 2.3 mph - -  
6:20 AM 32.0 °F - 19.4 °F 60% 29.92 in 6.2 mi Variable 1.2 mph - N/A   Overcast
6:50 AM 32.0 °F - 19.4 °F 60% 29.92 in 6.2 mi Variable 1.2 mph - N/A   Mostly Cloudy
7:20 AM 33.8 °F - 19.4 °F 56% 29.92 in 6.2 mi Variable 1.2 mph - N/A   Mostly Cloudy
7:50 AM 32.0 °F - 19.4 °F 60% 29.92 in 6.2 mi Variable 1.2 mph - N/A   Mostly Cloudy
8:00 AM 35 °F - 14 °F 28% 29.97 in - North 2.3 mph - -  
8:20 AM 32.0 °F - 19.4 °F 60% 29.92 in 6.2 mi Variable 2.3 mph - N/A   Mostly Cloudy
8:50 AM 32.0 °F - 19.4 °F 60% 29.92 in 6.2 mi Variable 2.3 mph - N/A   Scattered Clouds
9:00 AM 35 °F - 12 °F 25% 29.96 in - WNW 2.3 mph - -  
9:20 AM 32.0 °F - 19.4 °F 60% 29.92 in 6.2 mi Variable 1.2 mph - N/A   Partly Cloudy
9:50 AM 37.4 °F - 19.4 °F 48% 29.92 in 6.2 mi Variable 2.3 mph - N/A   Partly Cloudy
10:20 AM 37.4 °F - 19.4 °F 48% 29.89 in 6.2 mi Variable 2.3 mph - N/A   Scattered Clouds
10:50 AM 35.6 °F - 15.8 °F 44% 29.89 in 6.2 mi Variable 1.2 mph - N/A   Mostly Cloudy
11:00 AM 38 °F - 13 °F 22% 29.92 in - NNE 2.3 mph - -  
11:20 AM 37.4 °F - 17.6 °F 45% 29.86 in 6.2 mi Variable 1.2 mph - N/A   Mostly Cloudy
11:50 AM 37.4 °F - 10.4 °F 33% 29.86 in 6.2 mi Calm Calm - N/A   Mostly Cloudy
12:00 PM 38 °F - 13 °F 23% 29.89 in - Calm Calm - -  
12:20 PM 37.4 °F - 17.6 °F 45% 29.83 in 6.2 mi Variable 1.2 mph - N/A   Mostly Cloudy
12:50 PM 37.4 °F - 17.6 °F 45% 29.83 in 6.2 mi Variable 1.2 mph - N/A   Mostly Cloudy
1:20 PM 37.4 °F 32.8 °F 17.6 °F 45% 29.80 in 6.2 mi NW 5.8 mph - N/A   Mostly Cloudy
1:50 PM 37.4 °F 32.8 °F 19.4 °F 48% 29.80 in 5.0 mi NW 5.8 mph - N/A Snow Light Snow
2:00 PM 37 °F - 21 °F 38% 29.84 in - North 9.2 mph - -  
2:20 PM 35.6 °F 28.6 °F 24.8 °F 65% 29.80 in 5.0 mi NNE 9.2 mph - N/A Snow Light Snow
2:50 PM 35.6 °F 29.2 °F 23.0 °F 60% 29.77 in 5.0 mi NNE 8.1 mph - N/A Snow Light Snow
3:00 PM 36 °F - 23 °F 46% 29.83 in - NNW 5.8 mph - -  
3:20 PM 33.8 °F 27.0 °F 24.8 °F 70% 29.77 in 5.0 mi NNE 8.1 mph - N/A   Overcast
3:50 PM 33.8 °F 27.0 °F 26.6 °F 75% 29.77 in 3.7 mi NNE 8.1 mph - N/A Snow Light Snow
4:20 PM 33.8 °F 30.8 °F 26.6 °F 75% 29.74 in 3.7 mi North 3.5 mph - N/A Snow Light Snow
4:27 PM 33.8 °F - 26.6 °F 75% 29.74 in 3.7 mi Variable 2.3 mph - N/A Snow Light Snow
4:50 PM 33.8 °F - 26.6 °F 75% 29.74 in 3.7 mi Variable 2.3 mph - N/A Snow Light Snow
5:00 PM 34 °F - 26 °F 64% 29.78 in - East 1.2 mph - -  
5:20 PM 32.0 °F 27.5 °F 28.4 °F 87% 29.71 in 3.7 mi SSW 4.6 mph - N/A Snow Light Snow
5:50 PM 32.0 °F 27.5 °F 28.4 °F 87% 29.71 in 3.7 mi SSW 4.6 mph - N/A Snow Light Snow
6:00 PM 33 °F - 28 °F 76% 29.76 in - NE 1.2 mph - -  
6:20 PM 32.0 °F 28.7 °F 28.4 °F 87% 29.71 in 3.7 mi SSE 3.5 mph - N/A Snow Light Snow
6:50 PM 32.0 °F - 28.4 °F 87% 29.71 in 5.6 mi Variable 1.2 mph - N/A Snow Light Snow
7:20 PM 32.0 °F - 30.2 °F 93% 29.71 in 4.3 mi Variable 2.3 mph - N/A Snow Light Snow
7:50 PM 32.0 °F 28.7 °F 30.2 °F 93% 29.68 in 6.2 mi Variable 3.5 mph - N/A   Mostly Cloudy
8:00 PM 33 °F - 30 °F 84% 29.74 in - WSW 1.2 mph - -  
8:20 PM 32.0 °F 26.4 °F 30.2 °F 93% 29.68 in 6.2 mi SSE 5.8 mph - N/A   Mostly Cloudy
8:50 PM 32.0 °F 28.7 °F 30.2 °F 93% 29.68 in 6.2 mi SE 3.5 mph - N/A   Mostly Cloudy
9:00 PM 33 °F - 28 °F 77% 29.75 in - NW 1.2 mph - -  
9:20 PM 30.2 °F - 28.4 °F 93% 29.68 in 6.2 mi Variable 1.2 mph - N/A   Mostly Cloudy
9:50 PM 30.2 °F 26.7 °F 28.4 °F 93% 29.68 in 6.2 mi SE 3.5 mph - N/A   Mostly Cloudy
10:20 PM 28.4 °F - 28.4 °F 100% 29.68 in 6.2 mi East 2.3 mph - N/A   Mostly Cloudy
10:50 PM 28.4 °F - 26.6 °F 93% 29.68 in 6.2 mi Variable 1.2 mph - N/A   Scattered Clouds
11:00 PM 31 °F - 27 °F 80% 29.75 in - North 3.5 mph - -  
11:20 PM 26.6 °F 22.6 °F 24.8 °F 93% 29.68 in 5.0 mi North 3.5 mph - N/A   Unknown
11:50 PM 26.6 °F - 26.6 °F 100% 29.68 in - Variable 1.2 mph - N/A   Clear